Find Starlink 32340

NORAD ID: 61008 Int'l Des: 2024-158 Owner: SPXS Country: US Constellation: starlink operational
LEOCIRCULAR

Live-Position

3D-Globus wird geladen...

Über Starlink 32340

Beschreibung wird geladen...

Nächste Überflüge

Passes for default location (London). Set your location on the main map for personalized predictions.

Höhenverlauf

Loading altitude history...

Zweizeiliger Elementsatz

1 61008U 24158U 26126.46172451 -.00001159 00000-0 -27040-4 0 9997
2 61008 53.1592 157.3080 0001022 81.8030 278.3087 15.30185612 94427
Epoch: 6. Mai 2026 • Age: 20 hours

Aktueller Status

Höhe 481.7 km
Geschwindigkeit 7.62 km/s
Subsatellitenpunkt -21.79°S, 160.8°E
Startdatum 5. Sept. 2024
Alter 1.6 years
Typ internet

Technische Details

Klassifizierung Payload
Masse 730.00 kg
Trockenmasse 700.00 kg
Gesamtmasse 730.00 kg
Länge 0.30 m
Durchmesser 4.10 m
Spannweite 29.00 m
Form Box + pan
Hersteller SPXS
Bus-Typ Starlink V2M
Phasenstatus In Orbit
Besitzer/Staat SPXS/US

Most Searched